This is the latest recevied weather packets stored in our database for station/object N4ZIQ. If no packets are shown the sender has not sent any weather packets the latest 10 day(s).
| Time | Temp. | Humidity | Pressure | Rain* | Wind** | Luminosity | Snow |
|---|---|---|---|---|---|---|---|
| 1777900244 | 22.78° C | 72% | 1017.3 hPa | 0 mm | - | 432 W/m² | - |
| 1777899944 | 22.22° C | 73% | 1017.2 hPa | 0 mm | - | 417 W/m² | - |
| 1777899656 | 22.22° C | 73% | 1017.2 hPa | 0 mm | - | 399 W/m² | - |
| 1777899346 | 22.22° C | 74% | 1017.1 hPa | 0 mm | - | 383 W/m² | - |
| 1777899046 | 21.67° C | 74% | 1017 hPa | 0 mm | - | 369 W/m² | - |
| 1777898752 | 21.67° C | 74% | 1017.1 hPa | 0 mm | - | 353 W/m² | - |
| 1777898443 | 21.11° C | 76% | 1017 hPa | 0 mm | - | 330 W/m² | - |
| 1777898145 | 21.11° C | 77% | 1017 hPa | 0 mm | - | 316 W/m² | - |
| 1777897852 | 20.56° C | 78% | 1016.9 hPa | 0 mm | - | 299 W/m² | - |
| 1777897544 | 20.56° C | 79% | 1016.9 hPa | 0 mm | - | 274 W/m² | - |
| 1777897247 | 20° C | 80% | 1016.9 hPa | 0 mm | - | 257 W/m² | - |
| 1777896954 | 20° C | 81% | 1016.9 hPa | 0 mm | - | 237 W/m² | - |
| 1777896644 | 19.44° C | 82% | 1016.8 hPa | 0 mm | - | 218 W/m² | - |
| 1777896347 | 19.44° C | 82% | 1016.5 hPa | 0 mm | - | 195 W/m² | - |
| 1777896055 | 18.89° C | 83% | 1016.7 hPa | 0 mm | - | 169 W/m² | - |
| 1777895747 | 18.89° C | 84% | 1016.6 hPa | 0 mm | - | 139 W/m² | - |
| 1777895447 | 18.33° C | 85% | 1016.6 hPa | 0 mm | - | 121 W/m² | - |
| 1777895150 | 18.33° C | 85% | 1016.5 hPa | 0 mm | - | 104 W/m² | - |
| 1777894846 | 18.33° C | 87% | 1016.5 hPa | 0 mm | - | 91 W/m² | - |
| 1777894546 | 17.78° C | 88% | 1016.4 hPa | 0 mm | - | 81 W/m² | - |
| 1777894254 | 17.22° C | 89% | 1016.5 hPa | 0 mm | - | 72 W/m² | - |
| 1777893946 | 17.22° C | 90% | 1016.4 hPa | 0 mm | - | 63 W/m² | - |
| 1777893644 | 16.67° C | 91% | 1016.4 hPa | 0 mm | - | 53 W/m² | - |
| 1777893354 | 16.11° C | 92% | 1016.3 hPa | 0 mm | - | 42 W/m² | - |
| 1777893045 | 16.11° C | 92% | 1016.3 hPa | 0 mm | - | 26 W/m² | - |
* Rain latest hour (hover to see other rain measurements)
** Current wind speed in m/s (hover to see current wind gust speed)